[[{"header":{"parameterUnit":"m.s-1","parameterCategory":1,"la1":30.2991,"la2":30.254,"lo1":-89.0895,"lo2":-89.0444,"dy":0.0017,"dx":0.0017,"nx":28,"ny":28,"refTime":"2023-08-29T21:00:00:Z","depth":0,"parameterNumber":2,"parameterNumberName":"U-component_of_WINDS"},"data":[0,0,0,0,0,0,0,0,0,0,0,0,0,0,0,0,0,0,0,0,0,0,0,0,0,0,0,0,0,0,0,0,0,0,0,0,0,0,0,0,0,0,0,0,0,0,0,0,0,0,0,0,0,0,0,0,0,0,0.5597,0.5598,0,0.5681,0.5682,0.5683,0.5725,0.5725,0.5725,0.5725,0.5819,0.5821,0.5824,0,0,0,0,0,0,0,0,0,0,0,0,0,0.548,0.5482,0.5597,0.5598,0.5599,0.5681,0.5682,0.5684,0.5725,0.5725,0.5725,0.5725,0.5818,0.5821,0.5824,0,0,0,0,0,0,0,0,0,0,0,0,0,0.5544,0.5482,0.5597,0.5629,0.5633,0.5681,0.5682,0.5684,0.5725,0.5725,0.5725,0.5725,0.5817,0.582,0.5824,0.5848,0,0,0.5836,0.5837,0,0,0,0,0,0,0,0,0.5541,0.5549,0.5624,0.5627,0.5632,0.5692,0.5676,0.5739,0.5725,0.569,0.5725,0.5725,0.5777,0.5784,0.58,0.5853,0.5857,0.5836,0.5838,0.584,0.5841,0,0,0,0,0,0,0,0.5536,0.5545,0.5631,0.5625,0.563,0.5643,0.5652,0.5688,0.5733,0.5693,0.5697,0.5706,0.5779,0.5797,0.5803,0.5858,0.5836,0.5839,0.5842,0.5843,0.5937,0.5937,0,0,0,0,0,0,0.5525,0.5541,0.5628,0.5633,0.5585,0.5645,0.5655,0.5673,0.5733,0.5742,0.5706,0.5707,0.579,0.5798,0.5806,0.5839,0.584,0.5843,0.5846,0.5937,0.5937,0.5937,0,0,0,0,0,0,0.5523,0.5533,0.5625,0.5588,0.5601,0.5647,0.5667,0.5675,0.5692,0.5742,0.5751,0.5714,0.579,0.5801,0.5837,0.5843,0.5845,0.5849,0.5937,0.5937,0.5937,0.5905,0,0,0,0,0,0,0.5519,0.5531,0.5539,0.5588,0.5602,0.5651,0.5667,0.5676,0.5697,0.57,0.5752,0.5761,0.5791,0.5832,0.5841,0.5849,0.5852,0.5936,0.5937,0.5937,0.5906,0.5904,0.5903,0,0,0,0,0,0.5515,0.5527,0.5539,0.5549,0.5612,0.5652,0.566,0.5692,0.5698,0.5707,0.574,0.5759,0.5841,0.5835,0.5846,0.5855,0.5936,0.5937,0.5937,0.5906,0.5905,0.5903,0,0,0,0,0,0,0.548,0.5534,0.5548,0.5576,0.5609,0.5658,0.5671,0.5689,0.5723,0.5725,0.5766,0.5777,0.581,0.5837,0.5829,0.5883,0.5891,0.5894,0.5864,0.5862,0.5861,0.5854,0.5855,0,0,0,0,0,0.5475,0.55,0.5547,0.5568,0.5583,0.5624,0.5643,0.5665,0.5701,0.5716,0.5751,0.5788,0.5822,0.5844,0.5878,0.591,0.5924,0.5922,0.5921,0.5919,0.5921,0.5942,0.5943,0.5939,0.5939,0.5939,0,0,0.5466,0.5499,0.5512,0.5562,0.559,0.5617,0.5636,0.5664,0.5685,0.5721,0.5757,0.5784,0.5829,0.5863,0.5881,0.5886,0.5925,0.592,0.5918,0.5921,0.5943,0.5943,0.5943,0.594,0.5939,0.5939,0,0,0.5463,0.549,0.5511,0.5538,0.558,0.5607,0.5612,0.566,0.5678,0.5715,0.5743,0.5771,0.5828,0.5859,0.5882,0.5894,0.5914,0.5904,0.5897,0.5917,0.5917,0.5918,0.5923,0.5924,0.5906,0.5906,0.5906,0,0.5448,0.5487,0.552,0.5546,0.5568,0.56,0.5623,0.5649,0.5701,0.5716,0.5722,0.5795,0.5827,0.5871,0.5873,0.5891,0.59,0.5898,0.5914,0.5915,0.5916,0.5922,0.5923,0.5905,0.5905,0.5905,0.5905,0,0.5467,0.5494,0.5506,0.5553,0.5577,0.5601,0.564,0.5661,0.5682,0.5709,0.5748,0.5788,0.5831,0.5843,0.5865,0.5891,0.5893,0.5905,0.5915,0.5914,0.592,0.5923,0.5903,0.5903,0.5904,0.5904,0,0,0.5443,0.5508,0.5512,0.5534,0.5583,0.5606,0.5634,0.5675,0.5692,0.5728,0.5753,0.5802,0.5815,0.5841,0.5867,0.5884,0.5893,0.5895,0.5897,0.5894,0.5926,0.5916,0.5918,0.5907,0.5907,0.5908,0.5923,0,0.5448,0.5495,0.5526,0.5563,0.559,0.5622,0.5647,0.5681,0.5709,0.5738,0.577,0.5804,0.5817,0.5834,0.5853,0.5887,0.59,0.5887,0.5934,0.5935,0.5921,0.5921,0.591,0.5922,0.5925,0.5926,0.5926,0,0.5459,0.5491,0.553,0.5577,0.559,0.5611,0.5652,0.5678,0.572,0.5739,0.5769,0.5795,0.5829,0.5835,0.5884,0.5875,0.5897,0.5917,0.5918,0.5924,0.593,0.5927,0.5927,0.5928,0.593,0.593,0.5929,0,0.5439,0.5492,0.5523,0.5541,0.5597,0.5611,0.5636,0.5676,0.5699,0.5736,0.5752,0.5793,0.5816,0.5849,0.5887,0.5888,0.5933,0.5942,0.5952,0.5951,0.5959,0.5958,0.5962,0.5973,0.5973,0.5973,0.5972,0,0.5441,0.5463,0.5514,0.5533,0.556,0.5597,0.5625,0.5652,0.5689,0.5716,0.5748,0.5773,0.5821,0.5853,0.5884,0.5921,0.5931,0.5949,0.5957,0.5946,0.5944,0.5961,0.5961,0.5973,0.5973,0.5973,0.5973,0,0.5422,0.5457,0.5492,0.5542,0.5556,0.5574,0.5618,0.5639,0.5669,0.5703,0.5713,0.5761,0.5801,0.5842,0.5896,0.5917,0.5953,0.5964,0.5938,0.5943,0.595,0.5949,0.5965,0.597,0.5976,0.5976,0.5976,0,0.5421,0.5439,0.549,0.5509,0.5533,0.5563,0.5587,0.5625,0.5649,0.5698,0.5714,0.5756,0.5791,0.5854,0.5896,0.5938,0.5951,0.5954,0.5957,0.5947,0.5952,0.595,0.5953,0.5952,0.5952,0.5951,0.5951,0,0.5415,0.5432,0.5463,0.55,0.5527,0.5559,0.5593,0.5607,0.5653,0.5679,0.5719,0.5746,0.5801,0.5844,0.5891,0.5921,0.5945,0.595,0.5954,0.5944,0.5928,0.5938,0.5935,0.5949,0.5949,0.595,0.595,0.595,0.5406,0.5424,0.5463,0.5497,0.5526,0.5557,0.558,0.5612,0.5645,0.5691,0.5713,0.5754,0.5798,0.5864,0.5893,0.5928,0.5934,0.5941,0.5943,0.5944,0.5941,0.5922,0.5937,0.5937,0.5937,0.5937,0.5937,0,0.5403,0.543,0.5461,0.5506,0.5533,0.5551,0.559,0.5613,0.5647,0.5685,0.5719,0.5766,0.5808,0.5853,0.5898,0.5917,0.593,0.5928,0.5927,0.5934,0.5932,0.5924,0.5917,0.5917,0.5917,0.5917,0.5917,0.5917,0.5404,0.5436,0.5457,0.5505,0.5533,0.5571,0.5592,0.5622,0.5652,0.5702,0.5736,0.5764,0.5806,0.5855,0.5895,0.5908,0.5924,0.5919,0.5935,0.5932,0.5934,0.5935,0.5928,0.5922,0.5922,0.5933,0.5933,0.5933]},{"header":{"parameterUnit":"m.s-1","parameterCategory":1,"la1":30.2991,"la2":30.254,"lo1":-89.0895,"lo2":-89.0444,"dy":0.0017,"dx":0.0017,"nx":28,"ny":28,"refTime":"2023-08-29T21:00:00:Z","depth":0,"parameterNumber":3,"parameterNumberName":"V-component_of_WINDS"},"data":[0,0,0,0,0,0,0,0,0,0,0,0,0,0,0,0,0,0,0,0,0,0,0,0,0,0,0,0,0,0,0,0,0,0,0,0,0,0,0,0,0,0,0,0,0,0,0,0,0,0,0,0,0,0,0,0,0,0,-2.5246,-2.5248,0,-2.5447,-2.5449,-2.5452,-2.5604,-2.5605,-2.5607,-2.5608,-2.5815,-2.5819,-2.5823,0,0,0,0,0,0,0,0,0,0,0,0,0,-2.4996,-2.5,-2.5245,-2.5248,-2.525,-2.5447,-2.5449,-2.5452,-2.5604,-2.5605,-2.5607,-2.5609,-2.5813,-2.5818,-2.5823,0,0,0,0,0,0,0,0,0,0,0,0,0,-2.5141,-2.5001,-2.5245,-2.535,-2.5361,-2.5446,-2.5449,-2.5453,-2.5603,-2.5606,-2.5608,-2.561,-2.5812,-2.5818,-2.5824,-2.5821,0,0,-2.5843,-2.5846,0,0,0,0,0,0,0,0,-2.5133,-2.515,-2.5332,-2.5343,-2.5356,-2.5503,-2.5437,-2.5576,-2.5603,-2.5511,-2.5608,-2.5611,-2.5709,-2.5724,-2.5757,-2.5831,-2.584,-2.5844,-2.5848,-2.585,-2.5852,0,0,0,0,0,0,0,-2.5123,-2.5143,-2.5325,-2.5334,-2.5349,-2.5388,-2.5411,-2.5464,-2.5596,-2.552,-2.5531,-2.5553,-2.5716,-2.5751,-2.5763,-2.5843,-2.5844,-2.5849,-2.5853,-2.5856,-2.5929,-2.5927,0,0,0,0,0,0,-2.5096,-2.5133,-2.5319,-2.5331,-2.5247,-2.5391,-2.5416,-2.5453,-2.5596,-2.562,-2.5551,-2.5559,-2.5739,-2.5756,-2.5771,-2.578,-2.585,-2.5856,-2.586,-2.5931,-2.5928,-2.5926,0,0,0,0,0,0,-2.509,-2.5111,-2.5311,-2.5236,-2.5264,-2.5393,-2.5433,-2.5456,-2.5491,-2.562,-2.5644,-2.5562,-2.5741,-2.5762,-2.5809,-2.5789,-2.5859,-2.5865,-2.5933,-2.593,-2.5927,-2.5795,0,0,0,0,0,0,-2.5082,-2.5108,-2.5107,-2.5234,-2.5267,-2.5343,-2.5432,-2.5459,-2.5501,-2.5514,-2.5636,-2.5659,-2.5745,-2.5798,-2.5815,-2.5799,-2.587,-2.5935,-2.5931,-2.5928,-2.5801,-2.5788,-2.5776,0,0,0,0,0,-2.5073,-2.5061,-2.5106,-2.5128,-2.5269,-2.5342,-2.5361,-2.5459,-2.5499,-2.55,-2.5584,-2.5655,-2.5788,-2.5802,-2.5822,-2.5807,-2.5937,-2.5932,-2.5928,-2.5807,-2.579,-2.5776,0,0,0,0,0,0,-2.4927,-2.5079,-2.5131,-2.516,-2.5237,-2.5367,-2.5371,-2.5438,-2.5505,-2.5514,-2.5635,-2.5661,-2.5695,-2.5756,-2.5768,-2.5814,-2.5872,-2.5871,-2.5773,-2.5758,-2.5745,-2.573,-2.5875,0,0,0,0,0,-2.4898,-2.4944,-2.5075,-2.5088,-2.5124,-2.524,-2.5276,-2.5346,-2.543,-2.5464,-2.555,-2.563,-2.5691,-2.5728,-2.579,-2.5811,-2.5842,-2.5812,-2.5799,-2.5788,-2.5786,-2.5805,-2.5794,-2.5913,-2.5913,-2.5913,0,0,-2.4839,-2.4928,-2.4949,-2.5061,-2.5129,-2.5175,-2.5267,-2.5311,-2.5347,-2.5471,-2.552,-2.5587,-2.5684,-2.5718,-2.5738,-2.577,-2.576,-2.5783,-2.5773,-2.5777,-2.58,-2.5788,-2.5778,-2.591,-2.591,-2.5911,0,0,-2.4755,-2.4826,-2.4846,-2.4913,-2.5015,-2.5093,-2.5098,-2.5219,-2.5269,-2.532,-2.5415,-2.5461,-2.5561,-2.5628,-2.5675,-2.562,-2.5689,-2.5637,-2.5571,-2.5588,-2.5579,-2.5571,-2.5553,-2.5545,-2.5635,-2.5635,-2.5635,0,-2.4668,-2.4741,-2.4847,-2.4887,-2.4935,-2.505,-2.5073,-2.5132,-2.5249,-2.528,-2.5315,-2.5447,-2.552,-2.5573,-2.556,-2.5594,-2.5604,-2.5624,-2.5571,-2.5565,-2.5559,-2.5544,-2.5537,-2.5628,-2.5629,-2.563,-2.563,0,-2.463,-2.468,-2.4684,-2.4795,-2.4843,-2.4873,-2.4987,-2.5023,-2.509,-2.5165,-2.5218,-2.5311,-2.5396,-2.5414,-2.5479,-2.5477,-2.5495,-2.5548,-2.5609,-2.5539,-2.5527,-2.5522,-2.5618,-2.5621,-2.5623,-2.5625,0,0,-2.4457,-2.463,-2.463,-2.4683,-2.4806,-2.4847,-2.4884,-2.4968,-2.4998,-2.5076,-2.5111,-2.5196,-2.5248,-2.5301,-2.5375,-2.539,-2.5344,-2.5443,-2.5447,-2.5422,-2.5351,-2.5309,-2.5301,-2.5391,-2.539,-2.539,-2.5343,0,-2.4393,-2.4465,-2.4565,-2.4605,-2.4653,-2.4766,-2.4799,-2.4879,-2.4951,-2.5004,-2.5085,-2.5143,-2.5206,-2.524,-2.5259,-2.5345,-2.5331,-2.535,-2.5426,-2.5428,-2.5398,-2.5294,-2.525,-2.5201,-2.5339,-2.5338,-2.5338,0,-2.4327,-2.44,-2.4445,-2.4567,-2.4592,-2.4619,-2.4706,-2.4754,-2.4849,-2.4901,-2.4962,-2.5043,-2.509,-2.5145,-2.5213,-2.5224,-2.5262,-2.5309,-2.5309,-2.532,-2.5378,-2.5303,-2.5188,-2.5181,-2.5331,-2.5331,-2.5332,0,-2.4198,-2.4308,-2.435,-2.4392,-2.4535,-2.4553,-2.4613,-2.471,-2.4755,-2.4831,-2.4862,-2.4943,-2.4987,-2.5048,-2.5149,-2.5179,-2.5208,-2.527,-2.5253,-2.5251,-2.5253,-2.5252,-2.5143,-2.5277,-2.5277,-2.5277,-2.5277,0,-2.4116,-2.4139,-2.4294,-2.4319,-2.435,-2.4466,-2.4493,-2.4564,-2.465,-2.4693,-2.4796,-2.4834,-2.4965,-2.502,-2.51,-2.5146,-2.5164,-2.5209,-2.523,-2.52,-2.5194,-2.5226,-2.5232,-2.5275,-2.5275,-2.5276,-2.5276,0,-2.3976,-2.408,-2.4134,-2.4266,-2.4301,-2.4317,-2.4432,-2.4462,-2.4542,-2.4595,-2.4615,-2.474,-2.481,-2.4917,-2.5019,-2.5073,-2.5106,-2.514,-2.5073,-2.5086,-2.5064,-2.5065,-2.4972,-2.4967,-2.5102,-2.51,-2.5099,0,-2.3916,-2.3937,-2.4073,-2.4109,-2.4167,-2.4224,-2.4271,-2.4387,-2.4432,-2.4544,-2.4561,-2.4639,-2.4708,-2.4814,-2.4915,-2.4994,-2.5032,-2.4994,-2.5044,-2.5014,-2.5033,-2.503,-2.5034,-2.4982,-2.498,-2.4978,-2.4977,0,-2.3801,-2.3852,-2.3916,-2.3999,-2.4053,-2.4124,-2.42,-2.4224,-2.4357,-2.4403,-2.4477,-2.453,-2.4635,-2.4712,-2.4806,-2.4871,-2.4946,-2.496,-2.4961,-2.4931,-2.4892,-2.4914,-2.5042,-2.4962,-2.4963,-2.4964,-2.4965,-2.4966,-2.37,-2.3725,-2.3826,-2.3895,-2.3965,-2.4034,-2.407,-2.4156,-2.4219,-2.4313,-2.4378,-2.4448,-2.4546,-2.468,-2.4741,-2.4799,-2.4831,-2.4831,-2.4832,-2.483,-2.482,-2.4882,-2.4816,-2.4817,-2.4817,-2.4818,-2.4818,0,-2.3591,-2.3662,-2.3724,-2.3829,-2.3884,-2.3951,-2.404,-2.4082,-2.4142,-2.4227,-2.4293,-2.4379,-2.4455,-2.4563,-2.4648,-2.4673,-2.471,-2.4692,-2.4691,-2.4705,-2.4785,-2.4777,-2.466,-2.4661,-2.4661,-2.4661,-2.4661,-2.4661,-2.354,-2.3587,-2.3651,-2.3735,-2.3807,-2.3876,-2.3921,-2.3987,-2.4056,-2.4147,-2.4211,-2.4282,-2.4377,-2.447,-2.4544,-2.4574,-2.4601,-2.4572,-2.4612,-2.4685,-2.4699,-2.4713,-2.4706,-2.4576,-2.4576,-2.4528,-2.4528,-2.4527]}]]